Content
SEND FEEDBACK

Daily
Averages
Monthly
Summary
Germany

LUBECK, GERMANY


Home > Europe > Germany
Elevation: 56 feet     Latitude: 54 00N     Longitude: 011 12E

WEATHER
 
SELECT A DAY
Number of Records: 63,704;   Date Range: 7/3/96 - 10/19/14
 
SHARE

PRINT THIS DATA

[ ← Previous Day ]
WEATHER ALMANAC - NOVEMBER 1, 2013
[ Next Day → ]
[ °C ]   °F
Weather ElementAverageHighLow
Temperature51.8 °F55.4 °F (3:20 pm)48.2 °F (6:50 am)
Dewpoint47.2 °F48.2 °F (10:50 am)46.4 °F (6:50 am)
Humidity84.4 %93 % (6:50 am)77 % (3:20 pm)
Barometer29.89 in29.95 in (6:50 am)29.80 in (9:50 pm)
Wind Speed9 mph11.5 mph (11:20 am)
Weather ElementAverage
Visibility6.2 mi
Wind DirectionSSW (211.9 °)

Weather ElementTotal
Precipitation---
Heating Degree Days13.2 (Base 65)
Growing Degree Days1.8 (Base 50)
Averaged from 31 records on November 1, 2013
WEATHER CONDITIONS BREAKOUT
WIND DIRECTION BREAKOUT
WEATHER BY HOUR - NOVEMBER 1, 2013
[ °C ]   °F
Local TimeTemperatureDewpointHumidityBarometerVisibilityWind DirectionWind SpeedGust SpeedPrecipitationEventsConditions
6:50 AM48.2 °F46.4 °F93 %29.95 in6.2 miSSW (210°)6.9 mphMostly Cloudy
7:20 AM48.2 °F46.4 °F93 %29.95 in6.2 miSSW (210°)5.8 mphMostly Cloudy
7:50 AM48.2 °F46.4 °F93 %29.95 in6.2 miSSW (200°)6.9 mphMostly Cloudy
8:20 AM48.2 °F46.4 °F93 %29.95 in6.2 miSW (220°)8.1 mphMostly Cloudy
8:50 AM50.0 °F46.4 °F87 %29.95 in6.2 miSSW (210°)8.1 mphMostly Cloudy
9:20 AM50.0 °F46.4 °F87 %29.95 in6.2 miSW (220°)9.2 mphMostly Cloudy
9:50 AM50.0 °F46.4 °F87 %29.95 in5.6 miSW (220°)10.4 mphMostly Cloudy
10:20 AM50.0 °F46.4 °F87 %29.95 in6.2 miSSW (210°)8.1 mphMostly Cloudy
10:50 AM51.8 °F48.2 °F88 %29.92 in6.2 miSSW (210°)10.4 mphMostly Cloudy
11:20 AM51.8 °F48.2 °F88 %29.92 in6.2 miSW (220°)11.5 mphMostly Cloudy
11:50 AM51.8 °F48.2 °F88 %29.92 in6.2 miSSW (210°)10.4 mphMostly Cloudy
12:20 PM51.8 °F48.2 °F88 %29.92 inSW (220°)10.4 mphClear
12:50 PM53.6 °F48.2 °F82 %29.89 in6.2 miSW (220°)11.5 mphMostly Cloudy
1:20 PM53.6 °F48.2 °F82 %29.89 inSW (220°)11.5 mphClear
1:50 PM53.6 °F48.2 °F82 %29.89 in6.2 miSW (220°)10.4 mphMostly Cloudy
2:20 PM53.6 °F48.2 °F82 %29.89 in6.2 miSW (220°)9.2 mphMostly Cloudy
2:50 PM53.6 °F48.2 °F82 %29.89 in6.2 miSW (220°)8.1 mphMostly Cloudy
3:20 PM55.4 °F48.2 °F77 %29.86 in6.2 miSSW (210°)6.9 mphMostly Cloudy
3:50 PM53.6 °F48.2 °F82 %29.86 inSSW (200°)8.1 mphClear
4:20 PM53.6 °F46.4 °F77 %29.86 inSSW (210°)9.2 mphClear
4:50 PM53.6 °F46.4 °F77 %29.86 in6.2 miSSW (210°)9.2 mphMostly Cloudy
5:20 PM53.6 °F46.4 °F77 %29.86 in6.2 miSSW (210°)10.4 mphMostly Cloudy
5:50 PM53.6 °F46.4 °F77 %29.86 in6.2 miSSW (210°)9.2 mphMostly Cloudy
6:20 PM51.8 °F48.2 °F88 %29.86 in6.2 miSSW (210°)8.1 mphMostly Cloudy
6:50 PM51.8 °F46.4 °F82 %29.83 in6.2 miSSW (210°)8.1 mphMostly Cloudy
7:20 PM51.8 °F46.4 °F82 %29.83 in6.2 miSSW (210°)9.2 mphMostly Cloudy
7:50 PM51.8 °F48.2 °F88 %29.83 in6.2 miSSW (200°)8.1 mphMostly Cloudy
8:20 PM51.8 °F46.4 °F82 %29.83 in6.2 miSSW (200°)8.1 mphMostly Cloudy
8:50 PM51.8 °F46.4 °F82 %29.83 in6.2 miSSW (210°)9.2 mphMostly Cloudy
9:20 PM51.8 °F46.4 °F82 %29.83 in6.2 miSSW (210°)9.2 mphMostly Cloudy
9:50 PM51.8 °F46.4 °F82 %29.80 in6.2 miSSW (210°)8.1 mphMostly Cloudy
Hourly data recorded from EDHL, located miles away from Lubeck, Germany







STORIES FROM OUR PARTNERS